Location: Bismarck
(46.7731°N, 100.8200°W)
Time: 02:24:29
(UTC-05:00)

ISS - Visible Passes

Search period start: 29 March 2015 00:00
Search period end: 08 April 2015 00:00
Orbit: 396 x 406 km, 51.6° (Epoch: 28 March)

Date Brightness Start Highest point End Pass type
(mag) Time Alt. Az. Time Alt. Az. Time Alt. Az.
29 Mar -3.1 05:26:10 69° ENE 05:26:10 69° ENE 05:29:10 10° ESE visible
30 Mar -0.2 04:35:22 12° E 04:35:22 12° E 04:35:39 10° E visible
30 Mar -2.7 06:08:00 29° WSW 06:08:49 35° SW 06:11:48 10° SSE visible
31 Mar -1.4 05:17:26 21° SE 05:17:26 21° SE 05:18:40 10° SE visible
01 Apr -1.1 05:59:48 13° S 05:59:48 13° S 06:00:22 10° S visible
03 Apr -0.9 22:24:41 10° SW 22:25:21 15° SW 22:25:21 15° SW visible
04 Apr -2.5 21:31:29 10° SSW 21:34:25 31° SE 21:35:08 28° ESE visible
04 Apr -0.3 23:07:30 10° W 23:07:46 12° W 23:07:46 12° W visible
05 Apr -3.4 22:13:48 10° WSW 22:17:04 82° NNW 22:17:13 77° NNE visible
06 Apr -3.3 21:20:14 10° SW 21:23:28 61° SSE 21:26:22 12° ENE visible
06 Apr -1.4 22:56:53 10° W 22:58:57 30° NW 22:58:57 30° NW visible
07 Apr -2.6 22:03:01 10° W 22:06:13 51° NNW 22:07:51 25° NE visible
07 Apr 0.0 23:40:01 10° WNW 23:40:26 13° WNW 23:40:26 13° WNW visible
